Regional Weather Roundup
Issued by NWS

Home | Current Version | Previous Version | Graphics & Text | Print | Product List | Glossary On
Versions: 1 2 3 4 5 6 7 8 9 10 11 12 13 14 15 16 17 18 19 20 21 22 23 24 25 26 27 28 29 30 31 32 33 34 35 36 37 38 39 40 41 42 43 44 45 46 47 48 49 50
000
ASUS43 KIND 030409
RWRIN

WEATHER ROUNDUP FOR INDIANA
NATIONAL WEATHER SERVICE INDIANAPOLIS IN
1200 AM EDT THU SEP 03 2015

NOTE: "FAIR" INDICATES FEW OR NO CLOUDS BELOW 12,000 FEET WITH NO
SIGNIFICANT WEATHER AND/OR OBSTRUCTIONS TO VISIBILITY.

* - STATION DOES NOT REPORT WEATHER SUCH AS PRECIPITATION OR FOG.

+ - STATION NOT QUALITY CONTROLLED BY THE NATIONAL WEATHER SERVICE.
    USE DATA WITH CAUTION...ESPECIALLY DEWPOINT AND RELATIVE
    HUMIDITY OBSERVATIONS.

INZ001>003-010>013-019-020-030500-
NORTHWEST INDIANA

CITY           SKY/WX    TMP DP  RH WIND       PRES   REMARKS
GARY /AIRPORT/ PTCLDY    73  68  85 CALM      29.99S
KNOX *+        MOCLDY    72  72 100 CALM      29.99F
LA PORTE +     MOCLDY   N/A N/A N/A CALM      30.01S
MICHIGAN CITY+ MOCLDY    73  68  83 CALM      30.00S
MONTICELLO +   MOCLDY    76  71  87 CALM      30.01S
RENSSELAER +   MOCLDY    73  72  94 S5        30.00S
VALPARAISO     MOCLDY    78  69  73 S3        30.01R

$$

LMZ046-743>745-030500-
SOUTHERN LAKE MICHIGAN

STATION/POSITION TIME  TEMP    WIND        PRES    WAVE
                       AIR SEA DIR/SP/G            HT
                 (UTC) (F)     (DEG/KT/KT) (MB)    (FT)
BURNS HARBOR     0300   80     190/  7/  8 1015.9R
MICHIGAN CITY    0300   82     160/  8/ 10   N/A
5NW MICH CITY    0400   77 73  200/  6/  8   N/A     1

$$

INZ004-005-014>016-021>024-030500-
NORTH CENTRAL INDIANA

CITY           SKY/WX    TMP DP  RH WIND       PRES   REMARKS
GOSHEN         MOCLDY    73  68  84 CALM      30.01F
LOGANSPORT +   MOCLDY    70  64  83 S3        30.03S
PERU/GRISSOM   MOCLDY    74  69  85 S3        30.02S
ROCHESTER +    MOCLDY    73  72  94 CALM      30.02F
SOUTH BEND     PTCLDY    74  68  81 CALM      30.01S
WARSAW +       MOCLDY    70  70 100 CALM      30.02S

$$

INZ006>009-017-018-025>027-030500-
NORTHEAST INDIANA

CITY           SKY/WX    TMP DP  RH WIND       PRES   REMARKS
ANGOLA *+      CLOUDY    72  66  83 CALM      30.02S VSB 1/4
AUBURN +       PTCLDY    72  68  88 CALM      30.03S
FORT WAYNE     MOCLDY    74  69  85 SW3       30.03R
HUNTINGTON +   PTCLDY    73  67  81 CALM      30.02S

$$

INZ028-029-035-036-043>045-051>053-030500-
WEST CENTRAL INDIANA

CITY           SKY/WX    TMP DP  RH WIND       PRES   REMARKS
CRAWFORDSVL +  PTCLDY    65  65  99 CALM      30.03S
GREENCASTLE +  CLEAR     70  64  83 CALM      30.04S FOG
LAFAYETTE      PTCLDY    72  68  87 CALM      30.01S
TERRE HAUTE    CLEAR     69  66  90 CALM      30.02F

$$

INZ030>032-037>040-046>048-054>057-064-065-030500-
CENTRAL INDIANA

CITY           SKY/WX    TMP DP  RH WIND       PRES   REMARKS
FISHERS *+     CLEAR     70  70 100 CALM      30.04S
FRANKFORT +    MOCLDY   N/A N/A N/A CALM      30.05S
GREENWOOD *+   CLEAR     70  66  88 CALM      30.04F
INDIANAPOLIS   MOCLDY    76  67  73 SW5       30.03F
-EAGLE CREEK   PTCLDY    73  70  90 CALM      30.03F
KOKOMO *+      MOCLDY    72  64  78 CALM      30.03S
MARION +       PTCLDY    70  63  77 CALM      30.04S
MT COMFORT *+  CLEAR     70 N/A N/A CALM      30.04F
SHELBYVILLE    PTCLDY    70  66  87 CALM      30.03F
ZIONSVILLE +   PTCLDY    68  64  88 CALM      30.04F

$$

INZ033-034-041-042-049-050-058-059-030500-
EAST CENTRAL INDIANA

CITY           SKY/WX    TMP DP  RH WIND       PRES   REMARKS
MUNCIE         CLEAR     72  66  81 SW5       30.04S

$$

INZ060-061-067>069-081>083-085>088-030500-
SOUTHWEST INDIANA

CITY           SKY/WX    TMP DP  RH WIND       PRES   REMARKS
EVANSVILLE     CLEAR     74  69  85 CALM      30.03S
HUNTINGBURG *+ CLEAR     72  66  83 CALM      30.04S
WASHINGTON +   CLEAR     70  66  88 CALM      30.02S

$$

INZ062-063-066-070>080-084-089>092-030500-
SOUTH CENTRAL AND SOUTHEAST INDIANA

CITY           SKY/WX    TMP DP  RH WIND       PRES   REMARKS
BLOOMINGTON    CLEAR     69  67  93 CALM      30.04F FOG
NORTH VERNON + CLEAR     72  72 100 CALM      30.05S FOG
SEYMOUR +      CLEAR     68  66  94 CALM      30.03S FOG

$$



USA.gov is the U.S. government's official web portal to all federal, state and local government web resources and services.